sat.trackr.live / text

‹ back to catalog

STARLINK-6104

NORAD 56127 · 2023-046AM

PAYLOAD ACTIVE UNKNOWN

§ Identity

Operator
Country
US
Launch date
2023-03-29
Launch site
AFETR
Launch vehicle
Mass (kg)
RCS (m²)

Purposes: comms

External: N2YO · Heavens-Above · Gunter

§ Orbital elements

Epoch: 2026-05-25T04:56:13.841664Z

Period
94.27 min
Inclination
43.0020°
Eccentricity
0.0000918
Mean motion
15.27558171 rev/d
Perigee alt
482.5 km
Apogee alt
483.7 km
Semi-major
6,861.3 km
B*
-6.5160e-5
RAAN
78.1654°
Arg perigee
261.2957°
Mean anomaly
98.7790°
Rev number
17,386

§ Raw data

STARLINK-61041 56127U 23046AM  26145.20571576 -.00002053  00000+0 -65160-4 0  99902 56127  43.0020  78.1654 0000918 261.2957  98.7790 15.27558171173860

JSON: /api/v1/satellites/56127 · /tle

For live sub-satellite position, see the globe view (requires WebGL).

§ Visibility from observer

Set your observer location to see the next 7 days of passes ≥ 10°. The values pass through the URL so the page stays shareable.

No JS? Fill the form by hand. The geolocation button needs JavaScript.